Regional Weather Roundup
Issued by NWS

Home | Current Version | Previous Version | Text Only | Print | Product List | Glossary On
Versions: 1 2 3 4 5 6 7 8 9 10 11 12 13 14 15 16 17 18 19 20 21 22 23 24 25 26 27 28 29 30 31 32 33 34 35 36 37 38 39 40 41 42 43 44 45 46 47 48 49 50
000
ASUS43 KLSX 271707
RWRMO

WEATHER SUMMARY FOR MISSOURI
NATIONAL WEATHER SERVICE SPRINGFIELD MO
1100 AM CST MON FEB 27 2017

NOTE: "FAIR" INDICATES FEW OR NO CLOUDS BELOW 12,000 FEET WITH NO
       SIGNIFICANT WEATHER AND/OR OBSTRUCTIONS TO VISIBILITY.
       CURRENT SKY AND/OR WEATHER CONDITIONS ARE NOT AVAILABLE FOR
       CHILLICOTHE AND FARMINGTON.

MOZ001>031-035>038-043-044-053-054-271800-
...NORTHERN AND WESTERN MISSOURI...

CITY           SKY/WX    TMP DP  RH WIND       PRES   REMARKS
KANSAS CTY INT MOSUNNY   53  31  42 S16       30.01F
KANSAS C DTWN  SUNNY     53  33  46 SE9       30.02F
LEE`S SUMMIT   SUNNY     52  33  48 SE13G18   30.04F
ST JOSEPH      SUNNY     51  31  46 SE17      30.02F
CHILLICOTHE      N/A     45  36  70 SE7       30.08F
KIRKSVILLE     SUNNY     50  33  52 S8        30.09F

$$
MOZ066>068-077>081-088>096-101>105-271800-
...SOUTHWEST MISSOURI...

CITY           SKY/WX    TMP DP  RH WIND       PRES   REMARKS
SPRINGFIELD    MOSUNNY   56  37  49 SE16      30.05F
JOPLIN         SUNNY     58  39  49 SE14      30.00F
BRANSON        MOSUNNY   55  37  50 SE13G20   30.07F

$$
MOZ032>034-039>042-045>050-055>058-069>072-271800-
...CENTRAL MISSOURI...

CITY           SKY/WX    TMP DP  RH WIND       PRES   REMARKS
COLUMBIA       SUNNY     53  34  48 VRB3      30.09F
JEFFERSON CITY SUNNY     50  38  63 VRB5      30.10F
ROLLA          SUNNY     55  39  54 VRB6      30.08S
SEDALIA        SUNNY     56  33  42 SE10      30.07F
WHITEMAN AFB   MOSUNNY   54  33  45 SE10      30.05F
WARRENSBURG    SUNNY     52  32  46 SE7       30.05F
OSAGE BEACH    SUNNY     53  38  56 S7        30.09F

$$
MOZ051-052-059>065-271800-
...EAST CENTRAL MISSOURI...

CITY           SKY/WX    TMP DP  RH WIND       PRES   REMARKS
ST LOUIS INTL  MOSUNNY   56  39  53 S7        30.12F
SPIRIT OF STL  SUNNY     55  39  54 VRB3      30.11F
ST CHARLES     SUNNY     53  39  59 SW6       30.12F

$$
MOZ072>076-082>087-097>100-106>115-271800-
...SOUTH CENTRAL AND SOUTHEAST MISSOURI...

CITY           SKY/WX    TMP DP  RH WIND       PRES   REMARKS
CAPE GIRARDEAU PTSUNNY   55  45  68 S9        30.16R
FARMINGTON     SUNNY     55  42  61 S8        30.13S
POPLAR BLUFF   PTSUNNY   57  47  69 SW9       30.14S
WEST PLAINS    SUNNY     55  41  59 SE9       30.11S

$$



USA.gov is the U.S. government's official web portal to all federal, state and local government web resources and services.